Terminal Aerodrome Forecast
Issued by NWS

Home | Current Version | Previous Version | Text Only | Print | Product List | Glossary Off
Versions: 1 2 3 4 5 6 7 8 9 10 11 12 13 14 15 16 17 18 19 20 21

000
FTUS41 KCLE 242030 AAA
TAFFDY
TAF AMD
KFDY 242030Z 2421/2518 20020G30KT P6SM OVC060
      TEMPO 2421/2423 -TSRA OVC025CB
     FM242300 20020G30KT P6SM OVC045
     FM250300 24014KT P6SM -SHRA SCT020 OVC060
      TEMPO 2503/2505 26025G45KT 2SM TSRA BKN015CB
     FM250500 23010G20KT P6SM OVC025
     FM251000 24015G25KT P6SM OVC025
     FM251700 26020G30KT P6SM OVC025=

USA.gov is the U.S. government's official web portal to all federal, state and local government web resources and services.